Location: Unspecified
(42.3650°N, 71.1030°W)
Time: 15:18:17
(UTC+00:00)

SJ-6B - Pass Details

Date: 26 June 2024
Orbit: 489 x 545 km, 97.4° (Epoch: 23 July)

Event Time Altitude Azimuth Distance (km) Brightness Sun altitude
Rises 01:14:41 0° 216° (SW) 2,563 6.2 -8.0°
Reaches altitude 10° 01:18:23 10° 256° (WSW) 1,700 5.8 -8.5°
Maximum altitude 01:19:14 11° 270° (W) 1,663 6.0 -8.6°
Drops below altitude 10° 01:20:07 10° 284° (WNW) 1,710 6.4 -8.8°
Sets 01:23:53 0° 324° (NW) 2,619 8.3 -9.3°
